Weather History for KAST - April, 2014

Change the Weather History Date:

Wednesday, April 23, 2014

  Actual Average Record
Temperature  
Mean Temperature 50 °F 49 °F  
Max Temperature 53 °F 57 °F 73 °F (2006)
Min Temperature 46 °F 42 °F 34 °F (1992)
Degree Days  
Heating Degree Days 15 16  
Month to date heating degree days 353 384  
Since 1 July heating degree days 4298 4304  
Cooling Degree Days 0 0  
Month to date cooling degree days 0 0  
Year to date cooling degree days 0 0  
Moisture  
Dew Point 48 °F    
Average Humidity 88    
Maximum Humidity 96    
Minimum Humidity 80    
Precipitation  
Precipitation 1.73 in 0.16 in 2.22 in (2014)
Month to date precipitation 6.15 4.20  
Year to date precipitation 30.77 29.04  
Sea Level Pressure  
Sea Level Pressure 29.81 in    
Wind  
Wind Speed 11 mph (SSW)    
Max Wind Speed 23 mph    
Max Gust Speed 32 mph    
Visibility 5 miles    
Events Rain    
T = Trace of Precipitation, MM = Missing Value Source: NWS Daily Summary

Daily Weather History Graph

Daily Weather History Graph

Search for Another Location

Airport or City:

Trip Planner

Search our weather history database for the weather conditions in past years. The results will help you decide how hot, cold, wet, or windy it might be!

Date:

Astronomy

Apr. 23, 2014 Rise Set
Actual Time 6:14 AM PDT 8:13 PM PDT
Civil Twilight 5:42 AM PDT 8:45 PM PDT
Nautical Twilight 5:03 AM PDT 9:25 PM PDT
Astronomical Twilight 4:19 AM PDT 10:09 PM PDT
Moon 3:10 AM PDT (4/23) 2:09 PM PDT (4/23)
Length of Visible Light 15h 03m
Length of Day
13h 58m
Waning Crescent, 34% of the Moon is Illuminated
Apr 23
Waning Crescent
Apr 28
New
May 6
First Quarter
May 14
Full
May 21
Last Quarter

Hourly Weather History & Observations

Time (PDT) Temp. Windchill Dew Point Humidity Pressure Visibility Wind Dir Wind Speed Gust Speed Precip Events Conditions
12:33 AM 46.0 °F 41.0 °F 42.1 °F 86% 29.90 in 4.0 mi WSW 10.4 mph - 0.06 in Rain Light Rain
12:55 AM 46.0 °F 41.4 °F 42.1 °F 86% 29.90 in 5.0 mi SW 9.2 mph - 0.10 in Rain Rain
1:55 AM 46.9 °F - 43.0 °F 86% 29.90 in 10.0 mi SSW 6.9 mph - 0.03 in   Overcast
2:55 AM 48.0 °F - 43.0 °F 83% 29.90 in 10.0 mi SSW 9.2 mph - 0.01 in   Overcast
3:55 AM 48.0 °F - 44.1 °F 86% 29.90 in 10.0 mi SSW 5.8 mph - 0.03 in   Overcast
4:55 AM 46.9 °F - 43.0 °F 86% 29.90 in 10.0 mi SSW 4.6 mph - 0.04 in   Overcast
5:31 AM 46.9 °F - 44.1 °F 90% 29.90 in 5.0 mi Calm Calm - 0.04 in Rain Light Rain
5:40 AM 46.9 °F - 45.0 °F 93% 29.89 in 7.0 mi Calm Calm - 0.04 in Rain Light Rain
5:47 AM 48.0 °F - 45.0 °F 89% 29.89 in 9.0 mi South 3.5 mph - 0.04 in Rain Light Rain
5:55 AM 48.0 °F - 44.1 °F 86% 29.89 in 9.0 mi SSW 5.8 mph - 0.05 in Rain Light Rain
6:12 AM 48.0 °F - 44.1 °F 86% 29.90 in 10.0 mi SSW 8.1 mph - 0.00 in Rain Light Rain
6:55 AM 48.0 °F - 45.0 °F 89% 29.90 in 8.0 mi SW 5.8 mph - 0.05 in Rain Light Rain
7:55 AM 48.0 °F - 45.0 °F 89% 29.89 in 4.0 mi Calm Calm - 0.07 in Rain Light Rain
8:20 AM 48.0 °F - 45.0 °F 89% 29.89 in 1.8 mi East 4.6 mph - 0.10 in Rain Heavy Rain
8:34 AM 46.9 °F - 45.0 °F 93% 29.89 in 1.0 mi East 6.9 mph - 0.24 in Rain Heavy Rain
8:43 AM 48.0 °F - 45.0 °F 89% 29.89 in 2.0 mi East 3.5 mph - 0.34 in Rain Rain
8:52 AM 48.2 °F - 44.6 °F 87% 29.88 in 8.0 mi Calm Calm - 0.34 in Rain Light Rain
8:55 AM 48.0 °F - 46.0 °F 93% 29.88 in 9.0 mi ESE 3.5 mph - 0.34 in Rain Light Rain
9:33 AM 48.9 °F - 46.0 °F 90% 29.86 in 1.5 mi ENE 8.1 mph - 0.05 in Rain Heavy Rain
9:36 AM 48.9 °F - 46.0 °F 90% 29.86 in 1.0 mi ENE 6.9 mph - 0.13 in Rain Heavy Rain
9:47 AM 48.9 °F - 46.0 °F 90% 29.87 in 2.0 mi Variable 5.8 mph - 0.29 in Rain Light Rain
9:49 AM 48.2 °F - 46.4 °F 93% 29.87 in 3.0 mi Variable 4.6 mph - 0.29 in Rain Light Rain
9:55 AM 48.2 °F - 46.4 °F 93% 29.87 in 9.0 mi North - - N/A Rain Light Rain
10:35 AM 51.1 °F - 48.0 °F 89% 29.87 in 1.5 mi SW 12.7 mph 19.6 mph 0.02 in Rain Heavy Rain
10:39 AM 51.1 °F - 48.0 °F 89% 29.87 in 0.8 mi WSW 12.7 mph - 0.09 in Rain Heavy Rain
10:50 AM 51.8 °F - 48.2 °F 88% 29.87 in 1.8 mi SSW 15.0 mph 24.2 mph 0.20 in Rain Rain
10:51 AM 51.8 °F - 48.2 °F 88% 29.87 in 2.0 mi SSW 17.3 mph 24.2 mph 0.20 in Rain Rain
10:55 AM 51.1 °F - 48.0 °F 89% 29.87 in 2.5 mi SSW 17.3 mph 25.3 mph 0.21 in Rain Light Rain
11:14 AM 51.1 °F - 48.0 °F 89% 29.87 in 7.0 mi SSW 15.0 mph 24.2 mph 0.02 in Rain Light Rain
11:55 AM 52.0 °F - 48.9 °F 89% 29.87 in 10.0 mi SSW 12.7 mph 25.3 mph 0.03 in   Overcast
12:21 PM 53.1 °F - 48.9 °F 86% 29.87 in 10.0 mi SSW 12.7 mph - N/A   Overcast
12:55 PM 53.1 °F - 48.9 °F 86% 29.87 in 9.0 mi SW 13.8 mph 21.9 mph 0.00 in Rain Light Rain
1:06 PM 51.8 °F - 48.2 °F 88% 29.86 in 7.0 mi SSW 15.0 mph 21.9 mph N/A Rain Light Rain
1:08 PM 52.0 °F - 48.9 °F 89% 29.86 in 7.0 mi SW 15.0 mph 21.9 mph 0.00 in Rain Light Rain
1:50 PM 51.8 °F - 50.0 °F 94% 29.84 in 2.5 mi SW 5.8 mph - 0.08 in Rain Light Rain
1:55 PM 52.0 °F - 50.0 °F 93% 29.84 in 1.8 mi SW 8.1 mph - 0.09 in Rain Rain
2:02 PM 52.0 °F - 48.9 °F 89% 29.84 in 1.0 mi SSW 13.8 mph 24.2 mph 0.06 in Rain Heavy Rain
2:07 PM 52.0 °F - 50.0 °F 93% 29.84 in 0.8 mi SW 11.5 mph 24.2 mph 0.10 in Rain Heavy Rain
2:18 PM 52.0 °F - 50.0 °F 93% 29.83 in 1.2 mi South 16.1 mph 24.2 mph 0.18 in Rain Rain
2:22 PM 52.0 °F - 50.0 °F 93% 29.83 in 2.0 mi SSW 11.5 mph 26.5 mph 0.18 in Rain Light Rain
2:30 PM 53.1 °F - 50.0 °F 89% 29.83 in 3.0 mi South 12.7 mph 24.2 mph 0.18 in Rain Light Rain
2:40 PM 53.1 °F - 50.0 °F 89% 29.83 in 2.0 mi South 11.5 mph 23.0 mph 0.20 in Rain Light Rain
2:48 PM 53.1 °F - 48.9 °F 86% 29.83 in 3.0 mi SSW 13.8 mph 19.6 mph 0.21 in Rain Light Rain
2:53 PM 53.6 °F - 48.2 °F 82% 29.83 in 3.0 mi SSW 16.1 mph 21.9 mph 0.22 in Rain Light Rain
2:55 PM 52.0 °F - 48.9 °F 89% 29.83 in 4.0 mi SSW 16.1 mph 21.9 mph 0.22 in Rain Light Rain
3:07 PM 52.0 °F - 48.9 °F 89% 29.82 in 2.5 mi South 20.7 mph 27.6 mph 0.02 in Rain Rain
3:12 PM 52.0 °F - 48.9 °F 89% 29.82 in 1.8 mi South 13.8 mph 27.6 mph 0.07 in Rain Heavy Rain
3:23 PM 52.0 °F - 48.9 °F 89% 29.81 in 2.5 mi SSW 11.5 mph 23.0 mph 0.11 in Rain Light Rain
3:35 PM 52.0 °F - 48.9 °F 89% 29.80 in 3.0 mi SSW 12.7 mph 26.5 mph 0.11 in Rain Light Rain
3:43 PM 52.0 °F - 48.9 °F 89% 29.80 in 3.0 mi SSW 13.8 mph 27.6 mph 0.12 in Rain Light Rain
3:55 PM 52.0 °F - 48.9 °F 89% 29.79 in 2.5 mi South 19.6 mph 32.2 mph 0.12 in Rain Light Rain
4:11 PM 52.0 °F - 48.9 °F 89% 29.79 in 2.5 mi SSW 18.4 mph 32.2 mph 0.02 in Rain Light Rain
4:18 PM 52.0 °F - 48.9 °F 89% 29.79 in 4.0 mi South 18.4 mph 27.6 mph 0.03 in Rain Light Rain
4:55 PM 52.0 °F - 48.9 °F 89% 29.77 in 4.0 mi South 13.8 mph 21.9 mph 0.08 in Rain Light Rain
4:57 PM 52.0 °F - 48.9 °F 89% 29.77 in 4.0 mi South 13.8 mph 24.2 mph 0.00 in Rain Light Rain
5:09 PM 52.0 °F - 48.0 °F 86% 29.76 in 7.0 mi South 17.3 mph 27.6 mph 0.01 in Rain Light Rain
5:45 PM 52.0 °F - 48.0 °F 86% 29.74 in 10.0 mi South 15.0 mph 26.5 mph 0.02 in Rain Light Rain
5:55 PM 52.0 °F - 48.0 °F 86% 29.73 in 6.0 mi South 16.1 mph 21.9 mph 0.02 in Rain Light Rain
6:03 PM 52.0 °F - 48.0 °F 86% 29.73 in 3.0 mi South 12.7 mph 26.5 mph 0.00 in Rain Light Rain
6:40 PM 52.0 °F - 48.9 °F 89% 29.71 in 2.5 mi South 13.8 mph 26.5 mph 0.03 in Rain Light Rain
6:47 PM 52.0 °F - 48.9 °F 89% 29.71 in 2.0 mi South 16.1 mph 25.3 mph 0.04 in Rain Light Rain
6:55 PM 52.0 °F - 48.9 °F 89% 29.71 in 2.5 mi South 17.3 mph 25.3 mph 0.05 in Rain Light Rain
7:55 PM 53.1 °F - 50.0 °F 89% 29.68 in 4.0 mi South 19.6 mph 26.5 mph 0.08 in Rain Light Rain
8:12 PM 53.1 °F - 50.0 °F 89% 29.67 in 4.0 mi South 17.3 mph 34.5 mph 0.03 in Rain Rain
8:40 PM 53.1 °F - 50.0 °F 89% 29.67 in 5.0 mi SSW 18.4 mph 27.6 mph 0.11 in Rain Light Rain
8:55 PM 53.1 °F - 50.0 °F 89% 29.67 in 2.5 mi South 16.1 mph 26.5 mph 0.15 in Rain Rain
9:02 PM 53.1 °F - 50.0 °F 89% 29.67 in 4.0 mi SSW 21.9 mph 31.1 mph 0.01 in Rain Light Rain
9:53 PM 53.6 °F - 50.0 °F 88% 29.67 in 6.0 mi SSW 19.6 mph 33.4 mph 0.09 in Rain Light Rain
9:55 PM 53.1 °F - 50.0 °F 89% 29.67 in 7.0 mi SSW 19.6 mph 33.4 mph 0.09 in Rain Light Rain
10:55 PM 53.1 °F - 50.0 °F 89% 29.65 in 5.0 mi SSW 16.1 mph 33.4 mph 0.04 in Rain Light Rain
11:02 PM 53.1 °F - 50.0 °F 89% 29.65 in 4.0 mi South 16.1 mph 31.1 mph 0.01 in Rain Rain
11:42 PM 53.1 °F - 50.0 °F 89% 29.64 in 3.0 mi South 27.6 mph 38.0 mph 0.05 in Rain Light Rain
11:55 PM 53.1 °F - 50.0 °F 89% 29.63 in 5.0 mi SSW 23.0 mph 40.3 mph 0.06 in Rain Light Rain